RH
39 32 26 23 25 27 28 29 31 30 30 30 30 30 30 32 33 35 36 35 34 31 30 29 28 26 26 26 26 27 28 27 28 31 32 32 33 34 38 39 36 33 35
33 31 31 27 27 33 33 27 27 29 29 30 29 30 33 34 33 34 37 37 36 37 30 27 26 26 27 28 29 30 30 30 26 27 29 31 34 38 42 44 38 35 38
41 36 36 34 36 38 41 33 27 28 28 29 32 33 36 36 35 37 37 39 40 40 39 30 28 28 29 28 29 29 29 29 27 24 28 30 35 38 42 42 46 46 41
46 41 36 34 35 42 41 31 27 28 30 33 35 37 41 41 39 41 42 42 43 44 43 37 29 28 28 28 28 27 26 26 29 28 26 29 34 36 40 44 43 45 41
52 52 51 45 39 42 45 40 31 29 34 36 40 42 44 45 47 46 44 43 44 45 42 39 30 27 26 26 26 24 22 21 22 28 31 28 30 35 43 51 57 53 45
60 61 61 60 51 46 45 41 35 34 37 39 45 47 49 51 51 51 47 44 44 44 43 38 31 25 24 24 24 23 21 18 17 20 29 34 28 31 39 45 52 56 55
60 63 61 63 58 53 45 40 39 40 40 45 49 51 54 56 55 53 48 46 44 47 44 39 33 28 25 25 24 22 20 19 18 17 17 25 36 31 33 41 51 63 63
59 63 64 63 59 59 49 42 43 45 48 52 55 59 60 58 57 53 49 47 46 44 47 44 36 32 27 25 22 20 19 19 19 19 18 17 21 32 33 41 44 52 60
53 59 62 67 70 63 53 53 53 55 58 63 64 61 59 56 56 54 56 52 52 65 50 49 43 36 29 25 22 21 20 20 18 18 17 17 18 22 32 34 43 50 53
50 54 58 65 65 64 64 66 67 68 65 64 63 63 62 57 52 54 59 67 67 55 54 48 44 35 28 24 22 21 20 18 17 17 16 16 17 18 21 30 34 40 46
53 52 55 60 59 60 64 68 68 68 66 66 65 64 59 53 54 60 67 64 58 53 51 48 43 34 27 23 21 20 18 17 17 17 18 19 19 19 19 21 22 26 29
53 54 55 55 57 60 64 65 65 66 65 65 66 63 57 56 59 60 59 54 49 49 49 47 40 31 26 23 20 19 18 18 19 20 21 22 23 23 23 23 22 22 22
49 50 53 60 60 61 64 66 68 69 67 67 67 64 61 60 57 54 54 49 50 49 46 40 33 28 24 22 21 21 21 22 22 22 22 23 24 28 30 29 29 30 28
47 49 50 54 63 64 64 64 66 66 66 66 66 66 60 56 51 51 48 45 47 45 39 34 29 25 23 23 23 24 25 25 25 25 25 26 29 31 31 31 31 29 29
44 45 47 49 54 60 62 59 60 61 61 61 63 58 55 50 46 44 43 45 43 40 34 30 26 25 25 25 26 27 28 28 28 28 28 28 28 29 31 31 32 30 29
45 46 47 47 50 51 51 55 55 55 56 58 57 51 44 44 44 42 42 44 40 33 30 28 27 28 29 29 30 31 32 32 32 32 31 30 29 29 28 29 29 29 28
46 49 50 51 50 50 55 57 57 56 50 49 46 42 41 41 42 42 43 40 34 31 30 30 30 30 31 32 33 35 36 35 35 34 32 31 29 28 27 27 27 27 28
45 51 56 55 56 60 57 54 52 51 49 46 41 40 41 43 42 41 37 32 31 31 31 31 32 33 34 36 37 38 38 38 37 34 32 31 28 27 27 27 26 26 26
44 48 51 53 56 54 59 61 58 56 49 41 42 44 45 47 45 39 34 33 32 32 33 34 36 37 38 40 41 41 42 42 39 36 33 30 28 27 27 27 27 26 27
49 51 52 54 56 58 58 58 62 60 55 51 50 49 48 44 41 38 37 35 35 37 39 41 42 42 42 42 43 45 46 44 40 37 34 31 30 30 30 29 29 29 30
49 53 53 52 58 58 59 59 63 59 57 58 58 53 48 43 41 41 41 42 43 45 48 48 47 45 44 45 45 46 44 42 39 37 34 32 31 30 31 32 32 32 31
44 48 53 54 58 60 61 64 61 60 59 57 58 52 48 45 45 46 48 50 52 52 53 51 48 44 43 44 42 40 42 40 39 36 34 33 32 32 31 29 28 28 29
48 48 54 54 60 65 63 58 58 64 65 67 66 59 53 51 51 53 53 55 55 54 53 49 46 43 40 38 39 38 39 38 37 36 34 33 32 29 28 26 24 22 22
47 55 60 63 61 61 61 53 52 60 64 61 58 55 54 53 53 55 56 55 54 50 49 50 48 40 35 33 33 34 30 28 31 32 33 33 32 28 24 22 20 20 22
47 57 66 71 67 62 59 51 48 50 53 59 57 54 53 54 55 54 51 50 52 53 52 48 41 36 33 29 26 26 25 25 27 27 29 30 28 25 23 20 20 20 21
55 67 73 78 76 69 63 53 50 50 49 53 50 50 49 50 52 54 54 53 52 51 47 41 35 30 26 24 23 24 25 25 24 22 24 25 25 24 23 19 16 19 20